This is the latest recevied weather packets stored in our database for station/object OK1PNK-5. If no packets are shown the sender has not sent any weather packets the latest 1 day(s).
| Time | Temp. | Humidity | Pressure | Rain* | Wind** | Luminosity | Snow |
|---|---|---|---|---|---|---|---|
| 1836274672 | 12.22° C | 87% | 1024.1 hPa | 0 mm | 0.45 m/s, 225° | - | - |
| 1836274522 | 12.22° C | 87% | 1024.1 hPa | 0 mm | 0.45 m/s, 203° | - | - |
| 1836274073 | 12.22° C | 86% | 1024.2 hPa | 0 mm | 0.45 m/s, 270° | - | - |
| 1778032794 | 12.78° C | 85% | 965.4 hPa | 0 mm | 0.45 m/s, 225° | - | - |
| 1778032194 | 12.78° C | 85% | 965.5 hPa | 0 mm | 0.45 m/s, 232° | - | - |
| 1778031594 | 13.33° C | 85% | 965.5 hPa | 0 mm | 0.89 m/s, 216° | - | - |
| 1778030994 | 13.33° C | 85% | 965.5 hPa | 0 mm | 0.89 m/s, 216° | - | - |
| 1778030394 | 13.33° C | 85% | 965.5 hPa | 0 mm | 0.89 m/s, 216° | - | - |
| 1778029794 | 13.33° C | 85% | 965.5 hPa | 0 mm | 0.89 m/s, 216° | - | - |
| 1778029194 | 13.33° C | 85% | 965.5 hPa | 0 mm | 0.89 m/s, 216° | - | - |
| 1778028594 | 13.33° C | 85% | 965.5 hPa | 0 mm | 1.34 m/s, 215° | - | - |
| 1778027994 | 13.33° C | 85% | 965.5 hPa | 0 mm | 1.34 m/s, 216° | - | - |
| 1778027394 | 13.89° C | 85% | 965.4 hPa | 0 mm | 0.89 m/s, 270° | - | - |
| 1778026794 | 13.89° C | 85% | 965.5 hPa | 0 mm | 0.89 m/s, 230° | - | - |
| 1778026194 | 13.89° C | 85% | 965.5 hPa | 0 mm | 0.89 m/s, 279° | - | - |
| 1778025594 | 13.89° C | 85% | 965.7 hPa | 0 mm | 0.89 m/s, 230° | - | - |
| 1778024994 | 13.89° C | 85% | 965.8 hPa | 0 mm | 0.89 m/s, 219° | - | - |
| 1778024394 | 14.44° C | 85% | 965.7 hPa | 0 mm | 0.89 m/s, 219° | - | - |
| 1778023794 | 14.44° C | 85% | 965.6 hPa | 0 mm | 0.89 m/s, 225° | - | - |
| 1778023194 | 14.44° C | 84% | 965.7 hPa | 0 mm | 0.89 m/s, 229° | - | - |
| 1778022594 | 14.44° C | 84% | 965.7 hPa | 0 mm | 0.89 m/s, 218° | - | - |
| 1778021994 | 14.44° C | 84% | 965.6 hPa | 0 mm | 0.89 m/s, 217° | - | - |
| 1778021394 | 14.44° C | 84% | 965.4 hPa | 0 mm | 0.89 m/s, 229° | - | - |
| 1778020794 | 14.44° C | 84% | 965.3 hPa | 0 mm | 0.89 m/s, 227° | - | - |
| 1778020194 | 14.44° C | 85% | 965.3 hPa | 0 mm | 0.89 m/s, 236° | - | - |
* Rain latest hour (hover to see other rain measurements)
** Current wind speed in m/s (hover to see current wind gust speed)